[[{"header":{"parameterUnit":"m.s-1","parameterCategory":2,"la1":30.2992,"la2":30.254,"lo1":-89.0895,"lo2":-89.0443,"dy":0.0025,"dx":0.0025,"nx":19,"ny":19,"refTime":"2026-04-20T09:00:00:Z","depth":"0","parameterNumber":2,"parameterNumberName":"U-component_of_CURRENTS"},"data":[0,0,0,-0.2893,-0.2894,-0.2941,-0.2941,-0.2944,-0.2944,0,0,0,0,0,0,0,0,0,0,0,-0.2862,-0.2862,-0.2893,-0.2894,-0.2941,-0.2941,-0.2944,-0.2944,0,0,0,0,0,0,0,0,0,0,0,-0.2862,-0.2862,-0.2862,-0.2894,-0.2941,-0.2941,-0.2944,-0.292,0,0,0,0,0,0,0,0,0,0,-0.2881,-0.2854,-0.2862,-0.2862,-0.2895,-0.2941,-0.2941,-0.292,-0.2922,-0.291,0,-0.2917,0,-0.2941,-0.2944,-0.2944,0,0,0,-0.2883,-0.2852,-0.288,-0.2863,-0.2895,-0.2941,-0.2917,-0.2921,-0.2924,-0.2913,-0.2917,-0.2918,-0.2941,-0.2944,-0.2944,-0.2991,-0.2992,0,0,-0.288,-0.2855,-0.2879,-0.2882,-0.2906,-0.2915,-0.2918,-0.2923,-0.2914,-0.2918,-0.2919,-0.2941,-0.2944,-0.2944,-0.2991,-0.2991,0,0,0,-0.288,-0.2853,-0.2881,-0.288,-0.29,-0.2917,-0.292,-0.2914,-0.2928,-0.2919,-0.2941,-0.2944,-0.2944,-0.299,-0.2991,-0.3032,0,0,0,-0.2878,-0.2855,-0.288,-0.2864,-0.29,-0.2913,-0.291,-0.2927,-0.2929,-0.2941,-0.2944,-0.2944,-0.299,-0.2991,-0.303,-0.3037,0,0,0,-0.286,-0.2853,-0.2861,-0.2862,-0.2892,-0.2914,-0.2928,-0.2928,-0.2942,-0.2944,-0.2944,-0.2989,-0.299,-0.3028,-0.3034,-0.302,0,0,0,-0.2829,-0.2853,-0.286,-0.2899,-0.2891,-0.2964,-0.2928,-0.2963,-0.297,-0.2944,-0.299,-0.2991,-0.3027,-0.3032,-0.3019,-0.2857,-0.285,0,0,-0.285,-0.2854,-0.2884,-0.2894,-0.2966,-0.2956,-0.3018,-0.3003,-0.2982,-0.298,-0.2982,-0.303,-0.3034,-0.302,-0.2929,-0.2919,0,0,0,-0.2887,-0.2898,-0.2925,-0.2964,-0.3016,-0.3044,-0.3048,-0.3043,-0.304,-0.2995,-0.3044,-0.3045,-0.3034,-0.2935,-0.2928,-0.2871,-0.2997,-0.2996,-0.2996,-0.2843,-0.2902,-0.2948,-0.3014,-0.306,-0.3105,-0.3121,-0.3111,-0.3091,-0.3095,-0.3089,-0.3121,-0.3018,-0.301,-0.2956,-0.3107,-0.3107,-0.3107,-0.3107,-0.2854,-0.2871,-0.2951,-0.3014,-0.3071,-0.3117,-0.3169,-0.3161,-0.3162,-0.3142,-0.313,-0.2997,-0.3004,-0.2949,-0.311,-0.311,-0.3109,-0.3109,-0.3109,-0.2795,-0.2811,-0.2866,-0.2949,-0.3021,-0.31,-0.3145,-0.318,-0.318,-0.3189,-0.304,-0.3037,-0.2974,-0.3169,-0.3169,-0.3169,-0.3169,-0.3169,-0.3169,-0.2687,-0.2753,-0.2771,-0.2877,-0.292,-0.3004,-0.3113,-0.3133,-0.3097,-0.3063,-0.306,-0.297,-0.3139,-0.312,-0.3169,-0.3169,-0.3169,-0.3169,-0.3169,-0.2572,-0.2607,-0.2631,-0.2671,-0.2784,-0.2789,-0.2963,-0.2949,-0.298,-0.2916,-0.2826,-0.2982,-0.2941,-0.2944,-0.2921,-0.2915,-0.2915,-0.2915,-0.2915,-0.2454,-0.2491,-0.2472,-0.2504,-0.2575,-0.2673,-0.2612,-0.2657,-0.2662,-0.2615,-0.2696,-0.2649,-0.2662,-0.2605,-0.2616,-0.2586,-0.2495,-0.2495,-0.2495,-0.2339,-0.2372,-0.2297,-0.2368,-0.2451,-0.2495,-0.2347,-0.2311,-0.2381,-0.2481,-0.2656,-0.2674,-0.2614,-0.2639,-0.2556,-0.2576,-0.2529,0,0]},{"header":{"parameterUnit":"m.s-1","parameterCategory":2,"la1":30.2992,"la2":30.254,"lo1":-89.0895,"lo2":-89.0443,"dy":0.0025,"dx":0.0025,"nx":19,"ny":19,"refTime":"2026-04-20T09:00:00:Z","depth":"0","parameterNumber":3,"parameterNumberName":"V-component_of_CURRENTS"},"data":[0,0,0,-0.0435,-0.0433,-0.0326,-0.0325,-0.0139,-0.0138,0,0,0,0,0,0,0,0,0,0,0,-0.0472,-0.0472,-0.0435,-0.0433,-0.0326,-0.0325,-0.014,-0.0138,0,0,0,0,0,0,0,0,0,0,0,-0.0472,-0.0472,-0.0472,-0.0433,-0.0326,-0.0325,-0.014,-0.0228,0,0,0,0,0,0,0,0,0,0,-0.0335,-0.0391,-0.0472,-0.0472,-0.0432,-0.0327,-0.0325,-0.0232,-0.0222,-0.0181,0,-0.018,0,-0.0163,-0.0126,-0.0126,0,0,0,-0.041,-0.0399,-0.0369,-0.0472,-0.0432,-0.0327,-0.0368,-0.0227,-0.0215,-0.0168,-0.0178,-0.0171,-0.016,-0.0125,-0.0124,0.0004,0.0004,0,0,-0.0416,-0.0446,-0.0377,-0.0363,-0.0423,-0.0372,-0.0365,-0.022,-0.0216,-0.0177,-0.0167,-0.0157,-0.0124,-0.0123,0.0004,0.0004,0,0,0,-0.0449,-0.0451,-0.0424,-0.037,-0.0359,-0.0369,-0.0361,-0.0222,-0.0214,-0.0165,-0.0155,-0.0123,-0.0121,0.0004,0.0004,-0.0092,0,0,0,-0.0451,-0.0471,-0.0427,-0.0443,-0.0363,-0.0298,-0.0367,-0.0224,-0.0207,-0.0156,-0.0123,-0.0119,0.0004,0.0004,-0.0089,-0.014,0,0,0,-0.0474,-0.0473,-0.0467,-0.0445,-0.0409,-0.03,-0.0282,-0.022,-0.0202,-0.0126,-0.0119,0.0004,0.0004,-0.0087,-0.0136,-0.0072,0,0,0,-0.0498,-0.0529,-0.0468,-0.0493,-0.041,-0.0368,-0.0283,-0.0236,-0.0181,-0.0122,0.0004,0.0004,-0.0087,-0.0133,-0.007,0.0044,0.0048,0,0,-0.0558,-0.0537,-0.0552,-0.0495,-0.0497,-0.038,-0.0346,-0.0239,-0.0156,-0.0036,-0.0033,-0.009,-0.0136,-0.0071,0.0061,0.0064,0,0,0,-0.0585,-0.06,-0.0589,-0.0571,-0.0507,-0.0433,-0.032,-0.0246,-0.0137,-0.0124,-0.0057,-0.0082,-0.0038,0.0034,0.0037,0.0318,0.0006,0.0005,0.0005,-0.07,-0.0665,-0.0692,-0.064,-0.0594,-0.0459,-0.0381,-0.0251,-0.0176,-0.0137,-0.0135,-0.0122,-0.0048,-0.0044,0.0243,-0.0101,-0.0101,-0.0101,-0.0101,-0.081,-0.0832,-0.0768,-0.0785,-0.0678,-0.0622,-0.0428,-0.0347,-0.0203,-0.017,-0.0121,-0.0042,-0.0046,0.026,-0.0107,-0.0106,-0.0105,-0.0105,-0.0104,-0.0898,-0.0906,-0.0903,-0.0904,-0.0852,-0.072,-0.0614,-0.047,-0.0295,-0.0259,-0.0088,-0.0085,0.017,-0.0211,-0.021,-0.021,-0.021,-0.021,-0.021,-0.0993,-0.0989,-0.1042,-0.1025,-0.1021,-0.0942,-0.0725,-0.0585,-0.0323,-0.0171,-0.0168,0.0226,-0.0154,-0.0166,-0.021,-0.021,-0.021,-0.021,-0.021,-0.1107,-0.1102,-0.1192,-0.1214,-0.1192,-0.1117,-0.0894,-0.0508,-0.0328,-0.0156,0.0334,-0.0073,-0.0012,-0.0011,-0.0017,-0.002,-0.002,-0.002,-0.002,-0.1181,-0.1187,-0.1306,-0.1359,-0.1354,-0.1197,-0.0888,-0.043,0.0183,0.051,0.057,0.064,0.062,0.0723,0.0707,0.0718,0.0902,0.0903,0.0905,-0.1249,-0.1284,-0.1374,-0.1423,-0.1427,-0.1254,-0.0893,-0.0207,0.0667,0.0968,0.0941,0.0902,0.1026,0.0971,0.1146,0.1101,0.1122,0,0]}],[{"header":{"parameterUnit":"m.s-1","parameterCategory":2,"la1":30.2992,"la2":30.254,"lo1":-89.0895,"lo2":-89.0443,"dy":0.0025,"dx":0.0025,"nx":19,"ny":19,"refTime":"2026-04-20T09:00:00:Z","depth":"2","parameterNumber":2,"parameterNumberName":"U-component_of_CURRENTS"},"data":[0,0,0,-0.2782,-0.2784,-0.2833,-0.2833,-0.2834,-0.2834,0,0,0,0,0,0,0,0,0,0,0,-0.2752,-0.2752,-0.2782,-0.2784,-0.2833,-0.2833,-0.2834,-0.2834,0,0,0,0,0,0,0,0,0,0,0,-0.2752,-0.2752,-0.2753,-0.2784,-0.2833,-0.2833,-0.2834,-0.281,0,0,0,0,0,0,0,0,0,0,-0.2769,-0.2744,-0.2752,-0.2753,-0.2785,-0.2833,-0.2833,-0.2809,-0.2812,-0.2798,0,-0.2806,0,-0.283,-0.2834,-0.2834,0,0,0,-0.2773,-0.2743,-0.277,-0.2753,-0.2785,-0.2833,-0.2808,-0.2811,-0.2813,-0.2801,-0.2806,-0.2807,-0.283,-0.2834,-0.2834,-0.2876,-0.2877,0,0,-0.277,-0.2747,-0.2768,-0.2771,-0.2797,-0.2806,-0.281,-0.2813,-0.2805,-0.2806,-0.2808,-0.283,-0.2834,-0.2834,-0.2876,-0.2877,0,0,0,-0.277,-0.2745,-0.2772,-0.277,-0.279,-0.2808,-0.2812,-0.2805,-0.2818,-0.2808,-0.283,-0.2834,-0.2834,-0.2875,-0.2876,-0.2919,0,0,0,-0.2768,-0.2746,-0.2771,-0.2755,-0.279,-0.2805,-0.2803,-0.2817,-0.2819,-0.283,-0.2834,-0.2834,-0.2875,-0.2876,-0.2917,-0.2924,0,0,0,-0.275,-0.2744,-0.2753,-0.2754,-0.2784,-0.2806,-0.2819,-0.2818,-0.2833,-0.2834,-0.2834,-0.2874,-0.2876,-0.2915,-0.2921,-0.2907,0,0,0,-0.272,-0.2744,-0.2752,-0.279,-0.2784,-0.2853,-0.2819,-0.2853,-0.286,-0.2834,-0.2875,-0.2876,-0.2914,-0.2919,-0.2906,-0.2734,-0.2726,0,0,-0.2741,-0.2745,-0.2774,-0.2784,-0.2852,-0.2845,-0.2905,-0.2891,-0.2871,-0.2866,-0.2867,-0.2918,-0.2921,-0.2907,-0.2803,-0.2793,0,0,0,-0.2777,-0.2787,-0.2813,-0.2851,-0.29,-0.2928,-0.2934,-0.2929,-0.2927,-0.2883,-0.293,-0.293,-0.292,-0.2814,-0.2807,-0.2882,-0.2882,-0.2881,-0.2881,-0.2735,-0.2791,-0.2834,-0.2897,-0.2941,-0.2986,-0.3003,-0.2994,-0.2975,-0.2981,-0.2975,-0.3007,-0.2897,-0.2889,-0.2992,-0.2992,-0.2992,-0.2993,-0.2993,-0.2746,-0.276,-0.2837,-0.2897,-0.2952,-0.2998,-0.3048,-0.3043,-0.3045,-0.3027,-0.3015,-0.2877,-0.2883,-0.2996,-0.2996,-0.2995,-0.2995,-0.2994,-0.2994,-0.2689,-0.2703,-0.2757,-0.2836,-0.2907,-0.2983,-0.3027,-0.3063,-0.3065,-0.3074,-0.292,-0.2917,-0.3005,-0.3057,-0.3057,-0.3057,-0.3057,-0.3057,-0.3057,-0.2586,-0.2649,-0.2666,-0.2767,-0.281,-0.2891,-0.2999,-0.3017,-0.2979,-0.2942,-0.294,-0.3028,-0.3026,-0.3008,-0.3057,-0.3057,-0.3057,-0.3057,-0.3057,-0.2473,-0.2508,-0.253,-0.2568,-0.2676,-0.2659,-0.2844,-0.2825,-0.2859,-0.2792,-0.2853,-0.2857,-0.2815,-0.2818,-0.2795,-0.2786,-0.2786,-0.2786,-0.2786,-0.2359,-0.2395,-0.2375,-0.2403,-0.2467,-0.2537,-0.2423,-0.2387,-0.246,-0.2422,-0.2438,-0.2381,-0.24,-0.2332,-0.2347,-0.2313,-0.2178,-0.2177,-0.2176,-0.2246,-0.2278,-0.2204,-0.227,-0.2342,-0.2339,-0.2084,-0.1834,-0.1868,-0.2152,-0.2329,-0.2746,-0.2704,-0.2718,-0.2647,-0.2657,-0.2617,0,0]},{"header":{"parameterUnit":"m.s-1","parameterCategory":2,"la1":30.2992,"la2":30.254,"lo1":-89.0895,"lo2":-89.0443,"dy":0.0025,"dx":0.0025,"nx":19,"ny":19,"refTime":"2026-04-20T09:00:00:Z","depth":"2","parameterNumber":3,"parameterNumberName":"V-component_of_CURRENTS"},"data":[0,0,0,-0.0455,-0.0453,-0.0348,-0.0348,-0.0166,-0.0164,0,0,0,0,0,0,0,0,0,0,0,-0.0491,-0.0491,-0.0455,-0.0453,-0.0349,-0.0348,-0.0166,-0.0164,0,0,0,0,0,0,0,0,0,0,0,-0.0492,-0.0491,-0.0491,-0.0453,-0.0349,-0.0348,-0.0166,-0.0252,0,0,0,0,0,0,0,0,0,0,-0.0358,-0.0412,-0.0491,-0.0491,-0.0453,-0.0349,-0.0348,-0.0256,-0.0247,-0.0207,0,-0.0206,0,-0.0189,-0.0153,-0.0152,0,0,0,-0.0431,-0.042,-0.0391,-0.0491,-0.0452,-0.0349,-0.0389,-0.0251,-0.024,-0.0194,-0.0203,-0.0197,-0.0186,-0.0152,-0.0151,-0.0024,-0.0024,0,0,-0.0437,-0.0466,-0.0399,-0.0384,-0.0443,-0.0393,-0.0387,-0.0245,-0.0241,-0.0203,-0.0193,-0.0183,-0.0151,-0.015,-0.0024,-0.0024,0,0,0,-0.0468,-0.0471,-0.0444,-0.0392,-0.0381,-0.0391,-0.0383,-0.0247,-0.0239,-0.0191,-0.0181,-0.015,-0.0148,-0.0024,-0.0024,-0.0121,0,0,0,-0.0471,-0.049,-0.0448,-0.0463,-0.0385,-0.0321,-0.0389,-0.0248,-0.0232,-0.0182,-0.015,-0.0146,-0.0024,-0.0024,-0.0119,-0.017,0,0,0,-0.0493,-0.0492,-0.0486,-0.0465,-0.043,-0.0323,-0.0306,-0.0244,-0.0227,-0.0152,-0.0146,-0.0025,-0.0024,-0.0117,-0.0165,-0.0105,0,0,0,-0.0517,-0.0546,-0.0487,-0.0511,-0.0431,-0.0389,-0.0306,-0.026,-0.0206,-0.0149,-0.0024,-0.0024,-0.0116,-0.0163,-0.0104,-0.0005,-0.0003,0,0,-0.0575,-0.0554,-0.0568,-0.0513,-0.0515,-0.04,-0.0367,-0.0262,-0.018,-0.0064,-0.0061,-0.012,-0.0165,-0.0105,0.0014,0.0016,0,0,0,-0.0599,-0.0615,-0.0603,-0.0586,-0.0523,-0.0453,-0.0342,-0.0269,-0.0163,-0.015,-0.0085,-0.011,-0.0069,-0.0006,-0.0004,-0.0023,-0.0023,-0.0023,-0.0023,-0.0712,-0.0678,-0.0704,-0.0654,-0.061,-0.0477,-0.0403,-0.0276,-0.0202,-0.0163,-0.0164,-0.0154,-0.0089,-0.0086,-0.0128,-0.0129,-0.0129,-0.0129,-0.013,-0.082,-0.0842,-0.078,-0.0797,-0.0694,-0.064,-0.0451,-0.0372,-0.0233,-0.0199,-0.0153,-0.0082,-0.009,-0.0137,-0.0135,-0.0134,-0.0133,-0.0133,-0.0133,-0.0908,-0.0916,-0.0914,-0.0916,-0.0867,-0.0739,-0.0639,-0.0496,-0.0326,-0.0293,-0.0134,-0.0131,-0.0198,-0.0246,-0.0246,-0.0246,-0.0246,-0.0246,-0.0246,-0.1003,-0.0999,-0.1053,-0.1037,-0.1035,-0.0961,-0.075,-0.0616,-0.0364,-0.0219,-0.0216,-0.0191,-0.0187,-0.0201,-0.0246,-0.0246,-0.0246,-0.0246,-0.0246,-0.1117,-0.1112,-0.1202,-0.1225,-0.1208,-0.1143,-0.0924,-0.0556,-0.0381,-0.0218,-0.0128,-0.0131,-0.0071,-0.007,-0.0077,-0.0088,-0.0088,-0.0088,-0.0087,-0.1191,-0.1197,-0.1317,-0.1372,-0.1371,-0.1226,-0.0958,-0.0575,-0.0225,-0.0076,-0.0078,-0.0064,-0.0069,-0.0008,-0.0008,-0.0014,-0.0009,-0.0009,-0.0009,-0.126,-0.1295,-0.1387,-0.1436,-0.1445,-0.1291,-0.0996,-0.0504,-0.007,-0.0015,-0.0153,-0.0065,-0.0046,-0.0054,0.0042,0.004,0.0033,0,0]}],[{"header":{"parameterUnit":"m.s-1","parameterCategory":2,"la1":30.2992,"la2":30.254,"lo1":-89.0895,"lo2":-89.0443,"dy":0.0025,"dx":0.0025,"nx":19,"ny":19,"refTime":"2026-04-20T09:00:00:Z","depth":"4","parameterNumber":2,"parameterNumberName":"U-component_of_CURRENTS"},"data":[0,0,0,-0.1921,-0.1924,-0.2081,-0.2082,-0.2153,-0.2153,0,0,0,0,0,0,0,0,0,0,0,-0.1869,-0.187,-0.192,-0.1924,-0.2081,-0.2082,-0.2153,-0.2153,0,0,0,0,0,0,0,0,0,0,0,-0.1868,-0.187,-0.1872,-0.1925,-0.2081,-0.2082,-0.2153,-0.2066,0,0,0,0,0,0,0,0,0,0,-0.1929,-0.1904,-0.187,-0.1872,-0.1926,-0.2081,-0.2082,-0.2063,-0.2071,-0.2045,0,-0.2082,0,-0.2116,-0.2155,-0.2155,0,0,0,-0.1922,-0.1897,-0.1937,-0.1872,-0.1927,-0.2081,-0.201,-0.2069,-0.2078,-0.2055,-0.2083,-0.2087,-0.2118,-0.2155,-0.2155,-0.2227,-0.2227,0,0,-0.1914,-0.1895,-0.1932,-0.1944,-0.1981,-0.2005,-0.2015,-0.2076,-0.2088,-0.2084,-0.2089,-0.2119,-0.2156,-0.2156,-0.2226,-0.2227,0,0,0,-0.189,-0.1889,-0.193,-0.1939,-0.1977,-0.2009,-0.2021,-0.2086,-0.21,-0.209,-0.212,-0.2156,-0.2156,-0.2226,-0.2227,-0.2283,0,0,0,-0.1885,-0.1875,-0.1927,-0.1917,-0.1977,-0.2052,-0.2029,-0.2096,-0.2105,-0.2119,-0.2156,-0.2156,-0.2225,-0.2226,-0.228,-0.2285,0,0,0,-0.1859,-0.1873,-0.1895,-0.1915,-0.1984,-0.2053,-0.2071,-0.21,-0.2121,-0.2155,-0.2156,-0.2225,-0.2226,-0.2278,-0.2281,-0.2266,0,0,0,-0.1828,-0.1867,-0.1895,-0.1953,-0.1983,-0.208,-0.2072,-0.2149,-0.2186,-0.2156,-0.2225,-0.2226,-0.2277,-0.2279,-0.2265,-0.1971,0,0,0,-0.1853,-0.187,-0.1905,-0.1933,-0.2021,-0.2058,-0.2148,-0.2192,-0.2191,-0.2193,-0.2197,-0.2281,-0.2281,-0.2266,-0.2053,0,0,0,0,-0.1897,-0.1919,-0.1953,-0.2016,-0.2087,-0.2155,-0.2211,-0.2229,-0.2274,-0.222,-0.2292,-0.229,-0.2279,-0.2104,-0.2233,-0.2233,-0.2233,-0.2232,-0.2232,-0.1873,-0.1929,-0.1989,-0.2065,-0.2133,-0.2229,-0.2278,-0.2308,-0.2312,-0.2344,-0.2346,-0.2384,-0.2205,-0.2366,-0.2367,-0.2367,-0.2367,-0.2367,-0.2367,-0.1881,-0.1899,-0.2,-0.2081,-0.217,-0.2254,-0.2338,-0.2365,-0.2404,-0.2403,-0.239,-0.2189,-0.2373,-0.2372,-0.2371,-0.2371,-0.237,-0.237,-0.237,-0.1822,-0.1836,-0.1923,-0.2037,-0.2153,-0.2267,-0.232,-0.2402,-0.2434,-0.2453,-0.2234,-0.2404,-0.2385,-0.2447,-0.2447,-0.2447,-0.2447,-0.2447,-0.2447,-0.1702,-0.1788,-0.1842,-0.1985,-0.2059,-0.2168,-0.2313,-0.2324,-0.2389,-0.2248,-0.2461,-0.241,-0.2407,-0.2388,-0.2447,-0.2447,-0.2447,-0.2447,-0.2447,-0.1579,-0.1642,-0.1694,-0.1768,-0.1916,-0.197,-0.2171,-0.2133,-0.2113,-0.2025,-0.2118,-0.2134,-0.2071,-0.2077,-0.2043,-0.2002,-0.1998,-0.1995,0,-0.1467,-0.1512,-0.1544,-0.1598,-0.1644,-0.1823,-0.1755,-0.1813,-0.185,-0.1785,-0.2087,-0.2193,-0.2202,-0.2134,-0.2132,-0.2093,0,0,0,-0.1365,-0.14,-0.1365,-0.1455,-0.1496,-0.1551,-0.1712,-0.1641,-0.1883,-0.177,-0.1904,-0.1928,-0.2257,-0.2446,-0.2388,-0.2385,-0.235,0,0]},{"header":{"parameterUnit":"m.s-1","parameterCategory":2,"la1":30.2992,"la2":30.254,"lo1":-89.0895,"lo2":-89.0443,"dy":0.0025,"dx":0.0025,"nx":19,"ny":19,"refTime":"2026-04-20T09:00:00:Z","depth":"4","parameterNumber":3,"parameterNumberName":"V-component_of_CURRENTS"},"data":[0,0,0,-0.0346,-0.0345,-0.0283,-0.0282,-0.0147,-0.0146,0,0,0,0,0,0,0,0,0,0,0,-0.0367,-0.0367,-0.0346,-0.0345,-0.0283,-0.0282,-0.0147,-0.0146,0,0,0,0,0,0,0,0,0,0,0,-0.0367,-0.0367,-0.0367,-0.0345,-0.0283,-0.0282,-0.0147,-0.0204,0,0,0,0,0,0,0,0,0,0,-0.0269,-0.031,-0.0367,-0.0367,-0.0345,-0.0283,-0.0282,-0.0207,-0.02,-0.0165,0,-0.017,0,-0.0162,-0.0137,-0.0137,0,0,0,-0.0326,-0.0316,-0.0297,-0.0367,-0.0344,-0.0283,-0.0305,-0.0203,-0.0196,-0.0156,-0.0168,-0.0163,-0.016,-0.0136,-0.0136,-0.0034,-0.0033,0,0,-0.0329,-0.0352,-0.0302,-0.0293,-0.0345,-0.0308,-0.0304,-0.0199,-0.0199,-0.0168,-0.016,-0.0157,-0.0136,-0.0135,-0.0034,-0.0033,0,0,0,-0.0352,-0.0354,-0.0338,-0.0298,-0.0295,-0.0306,-0.0302,-0.0203,-0.0198,-0.0159,-0.0156,-0.0135,-0.0133,-0.0034,-0.0034,-0.0121,0,0,0,-0.0353,-0.0369,-0.034,-0.0352,-0.0298,-0.0258,-0.0309,-0.0205,-0.0193,-0.0156,-0.0135,-0.0132,-0.0034,-0.0034,-0.0119,-0.0174,0,0,0,-0.0367,-0.037,-0.0368,-0.0353,-0.0335,-0.026,-0.0248,-0.0202,-0.0192,-0.0137,-0.0132,-0.0034,-0.0034,-0.0117,-0.017,-0.0141,0,0,0,-0.0383,-0.0402,-0.0369,-0.0386,-0.0336,-0.0308,-0.0248,-0.0216,-0.0176,-0.0134,-0.0034,-0.0034,-0.0117,-0.0167,-0.0139,-0.0167,0,0,0,-0.0418,-0.0407,-0.0417,-0.0385,-0.0393,-0.0314,-0.0297,-0.0221,-0.0153,-0.0061,-0.0059,-0.012,-0.017,-0.014,-0.0143,0,0,0,0,-0.0434,-0.045,-0.0443,-0.044,-0.0398,-0.0362,-0.0281,-0.0228,-0.0148,-0.013,-0.0087,-0.0115,-0.0094,-0.0104,-0.0032,-0.0032,-0.0032,-0.0032,-0.0032,-0.0511,-0.0493,-0.052,-0.0495,-0.047,-0.0386,-0.0339,-0.0246,-0.018,-0.0151,-0.0162,-0.017,-0.0183,-0.0122,-0.0123,-0.0123,-0.0124,-0.0124,-0.0124,-0.059,-0.0611,-0.0588,-0.0613,-0.0557,-0.0529,-0.0396,-0.0336,-0.0239,-0.0197,-0.0171,-0.0167,-0.0132,-0.013,-0.0129,-0.0128,-0.0128,-0.0127,-0.0127,-0.0652,-0.0662,-0.068,-0.0713,-0.0705,-0.0627,-0.0575,-0.0461,-0.0329,-0.031,-0.0256,-0.0206,-0.0224,-0.0277,-0.0277,-0.0277,-0.0277,-0.0277,-0.0277,-0.0709,-0.0725,-0.0791,-0.0815,-0.084,-0.0814,-0.0678,-0.0587,-0.0439,-0.0358,-0.0325,-0.022,-0.0215,-0.023,-0.0279,-0.0279,-0.0279,-0.0278,-0.0278,-0.0781,-0.0794,-0.0893,-0.0942,-0.0987,-0.0953,-0.0838,-0.062,-0.0523,-0.0415,-0.0347,-0.0343,-0.0304,-0.0296,-0.0312,-0.0388,-0.0388,-0.0389,0,-0.0826,-0.0841,-0.0975,-0.1058,-0.1091,-0.1025,-0.089,-0.0744,-0.0546,-0.0555,-0.0533,-0.0469,-0.0461,-0.0427,-0.0421,-0.0447,0,0,0,-0.0873,-0.0911,-0.1009,-0.1091,-0.1134,-0.0963,-0.0846,-0.0767,-0.059,-0.0465,-0.0403,-0.0399,-0.0368,-0.0285,-0.0213,-0.0207,-0.0226,0,0]}]]